Time,TemperatureF,DewpointF,PressureIn,WindDirection,WindDirectionDegrees,WindSpeedMPH,WindSpeedGustMPH,Humidity,HourlyPrecipIn,Conditions,Clouds,dailyrainin,SolarRadiationWatts/m^2,SoftwareType,DateUTC
2013-03-19 00:00:00,33.7,31.6,29.89,NE,48,1.0,2.0,92,0.00,OVC,,0.00,0.0,WeatherDisplay:10.37,2013-03-19 04:00:00,
2013-03-19 00:04:00,33.6,31.8,29.89,NE,56,1.0,3.0,93,0.00,OVC,,0.00,0.0,WeatherDisplay:10.37,2013-03-19 04:04:00,
2013-03-19 00:09:00,33.6,31.5,29.89,ENE,71,1.0,3.0,92,0.00,OVC,,0.00,0.0,WeatherDisplay:10.37,2013-03-19 04:09:00,
2013-03-19 00:14:00,33.6,31.8,29.89,ENE,77,1.0,3.0,93,0.00,OVC,,0.00,0.0,WeatherDisplay:10.37,2013-03-19 04:14:00,
2013-03-19 00:19:00,33.7,31.8,29.88,ENE,77,0.0,2.0,93,0.00,OVC,,0.00,0.0,WeatherDisplay:10.37,2013-03-19 04:19:00,
2013-03-19 00:24:00,33.7,31.9,29.88,ENE,76,3.0,7.0,93,0.00,OVC,,0.00,0.0,WeatherDisplay:10.37,2013-03-19 04:24:00,
2013-03-19 00:29:00,33.7,31.9,29.87,ENE,78,1.0,5.0,93,0.00,OVC,,0.00,0.0,WeatherDisplay:10.37,2013-03-19 04:29:00,
2013-03-19 00:39:00,33.7,31.9,29.87,ENE,76,2.0,3.0,93,0.00,OVC,,0.00,0.0,WeatherDisplay:10.37,2013-03-19 04:39:00,
2013-03-19 00:45:00,33.7,31.9,29.86,East,80,2.0,3.0,93,0.00,OVC,,0.00,0.0,WeatherDisplay:10.37,2013-03-19 04:45:00,
2013-03-19 00:54:00,33.8,32.0,29.86,East,87,1.0,3.0,93,0.00,OVC,,0.00,0.0,WeatherDisplay:10.37,2013-03-19 04:54:00,
2013-03-19 00:59:00,33.9,32.1,29.86,ENE,75,3.0,7.0,93,0.00,OVC,,0.00,0.0,WeatherDisplay:10.37,2013-03-19 04:59:00,
2013-03-19 01:04:00,34.1,32.3,29.85,ENE,76,3.0,6.0,93,0.00,OVC,,0.00,0.0,WeatherDisplay:10.37,2013-03-19 05:04:00,
2013-03-19 01:09:00,34.2,32.1,29.85,East,89,3.0,6.0,92,0.00,OVC,,0.00,0.0,WeatherDisplay:10.37,2013-03-19 05:09:00,
2013-03-19 01:14:00,34.2,32.1,29.85,East,86,3.0,7.0,92,0.00,OVC,,0.00,0.0,WeatherDisplay:10.37,2013-03-19 05:14:00,
2013-03-19 01:19:00,34.3,32.2,29.85,East,81,3.0,6.0,92,0.00,OVC,,0.00,0.0,WeatherDisplay:10.37,2013-03-19 05:19:00,
2013-03-19 01:24:00,34.4,32.3,29.85,East,88,1.0,4.0,92,0.00,OVC,,0.00,0.0,WeatherDisplay:10.37,2013-03-19 05:24:00,
2013-03-19 01:29:00,34.3,32.2,29.84,East,101,3.0,5.0,92,0.00,OVC,,0.00,0.0,WeatherDisplay:10.37,2013-03-19 05:29:00,
2013-03-19 01:34:00,34.3,32.2,29.84,ESE,102,1.0,3.0,92,0.00,OVC,,0.00,0.0,WeatherDisplay:10.37,2013-03-19 05:34:00,
2013-03-19 01:39:00,34.3,32.2,29.84,ESE,102,0.0,1.0,92,0.00,OVC,,0.00,0.0,WeatherDisplay:10.37,2013-03-19 05:39:00,
2013-03-19 01:44:00,34.2,32.1,29.84,ESE,102,1.0,2.0,92,0.00,OVC,,0.00,0.0,WeatherDisplay:10.37,2013-03-19 05:44:00,
2013-03-19 01:49:00,34.2,32.1,29.84,ESE,102,1.0,3.0,92,0.00,OVC,,0.00,0.0,WeatherDisplay:10.37,2013-03-19 05:49:00,
2013-03-19 01:54:00,34.2,32.1,29.83,East,91,2.0,4.0,92,0.00,OVC,,0.00,0.0,WeatherDisplay:10.37,2013-03-19 05:54:00,
2013-03-19 01:59:00,34.4,32.6,29.84,ENE,59,0.0,3.0,93,0.00,OVC,,0.00,0.0,WeatherDisplay:10.37,2013-03-19 05:59:00,
2013-03-19 02:05:00,34.3,32.2,29.84,NE,47,1.0,2.0,92,0.00,OVC,,0.00,0.0,WeatherDisplay:10.37,2013-03-19 06:05:00,
2013-03-19 02:14:00,34.3,32.5,29.83,ENE,60,2.0,3.0,93,0.00,OVC,,0.00,0.0,WeatherDisplay:10.37,2013-03-19 06:14:00,
2013-03-19 02:19:00,34.3,32.4,29.83,ENE,76,0.0,3.0,93,0.00,OVC,,0.00,0.0,WeatherDisplay:10.37,2013-03-19 06:19:00,
2013-03-19 02:24:00,34.3,32.5,29.82,East,80,0.0,1.0,93,0.00,OVC,,0.00,0.0,WeatherDisplay:10.37,2013-03-19 06:24:00,
2013-03-19 02:29:00,34.3,32.5,29.83,East,80,0.0,3.0,93,0.00,OVC,,0.00,0.0,WeatherDisplay:10.37,2013-03-19 06:29:00,
2013-03-19 02:34:00,34.3,32.5,29.83,East,80,0.0,1.0,93,0.00,OVC,,0.00,0.0,WeatherDisplay:10.37,2013-03-19 06:34:00,
2013-03-19 02:39:00,34.1,32.3,29.82,East,80,0.0,2.0,93,0.00,OVC,,0.00,0.0,WeatherDisplay:10.37,2013-03-19 06:39:00,
2013-03-19 02:44:00,34.0,32.2,29.82,East,80,0.0,2.0,93,0.00,OVC,,0.00,0.0,WeatherDisplay:10.37,2013-03-19 06:44:00,
2013-03-19 02:49:00,33.9,32.1,29.82,East,80,0.0,1.0,93,0.00,OVC,,0.00,0.0,WeatherDisplay:10.37,2013-03-19 06:49:00,
2013-03-19 02:54:00,33.9,32.1,29.82,East,80,0.0,2.0,93,0.00,OVC,,0.00,0.0,WeatherDisplay:10.37,2013-03-19 06:54:00,
2013-03-19 02:59:00,33.8,32.0,29.82,East,80,0.0,1.0,93,0.00,OVC,,0.00,0.0,WeatherDisplay:10.37,2013-03-19 06:59:00,
2013-03-19 03:04:00,33.7,31.9,29.82,East,80,0.0,2.0,93,0.00,OVC,,0.00,0.0,WeatherDisplay:10.37,2013-03-19 07:04:00,
2013-03-19 03:09:00,33.5,31.7,29.82,ENE,73,1.0,3.0,93,0.00,OVC,,0.00,0.0,WeatherDisplay:10.37,2013-03-19 07:09:00,
2013-03-19 03:14:00,33.4,31.6,29.81,NNE,22,2.0,4.0,93,0.00,OVC,,0.00,0.0,WeatherDisplay:10.37,2013-03-19 07:14:00,
2013-03-19 03:19:00,33.3,31.5,29.81,NNW,343,0.0,3.0,93,0.00,,,0.00,0.0,WeatherDisplay:10.37,2013-03-19 07:19:00,
2013-03-19 03:24:00,33.3,31.5,29.80,NNW,330,0.0,1.0,93,0.00,,,0.00,0.0,WeatherDisplay:10.37,2013-03-19 07:24:00,
2013-03-19 03:29:00,33.3,31.7,29.81,NNW,329,0.0,2.0,94,0.00,,,0.00,0.0,WeatherDisplay:10.37,2013-03-19 07:29:00,
2013-03-19 03:34:00,33.3,31.8,29.80,NNW,329,0.0,2.0,94,0.00,,,0.00,0.0,WeatherDisplay:10.37,2013-03-19 07:34:00,
2013-03-19 03:39:00,33.3,31.7,29.80,NNW,329,0.0,0.0,94,0.00,,,0.00,0.0,WeatherDisplay:10.37,2013-03-19 07:39:00,
2013-03-19 03:44:00,33.3,31.8,29.80,NNW,329,0.0,1.0,94,0.00,,,0.00,0.0,WeatherDisplay:10.37,2013-03-19 07:44:00,
2013-03-19 03:49:00,33.3,31.8,29.79,NNW,329,0.0,1.0,94,0.00,,,0.00,0.0,WeatherDisplay:10.37,2013-03-19 07:49:00,
2013-03-19 03:54:00,33.3,31.8,29.79,NNW,329,1.0,2.0,94,0.00,,,0.00,0.0,WeatherDisplay:10.37,2013-03-19 07:54:00,
2013-03-19 03:59:00,33.4,31.9,29.79,NNW,329,1.0,2.0,94,0.00,,,0.00,0.0,WeatherDisplay:10.37,2013-03-19 07:59:00,
2013-03-19 04:04:00,33.4,31.9,29.78,NW,326,2.0,3.0,94,0.00,,,0.00,0.0,WeatherDisplay:10.37,2013-03-19 08:04:00,
2013-03-19 04:09:00,33.4,31.9,29.79,NW,323,0.0,3.0,94,0.00,,,0.00,0.0,WeatherDisplay:10.37,2013-03-19 08:09:00,
2013-03-19 04:14:00,33.4,31.9,29.79,NW,322,0.0,2.0,94,0.00,,,0.00,0.0,WeatherDisplay:10.37,2013-03-19 08:14:00,
2013-03-19 04:19:00,33.4,31.9,29.79,NW,322,0.0,0.0,94,0.00,,,0.00,0.0,WeatherDisplay:10.37,2013-03-19 08:19:00,
2013-03-19 04:24:00,33.4,31.9,29.79,NW,322,0.0,0.0,94,0.00,,,0.00,0.0,WeatherDisplay:10.37,2013-03-19 08:24:00,
2013-03-19 04:29:00,33.3,31.8,29.78,NW,322,0.0,0.0,94,0.00,,,0.00,0.0,WeatherDisplay:10.37,2013-03-19 08:29:00,
2013-03-19 04:34:00,33.3,31.8,29.78,NW,322,0.0,0.0,94,0.00,,,0.00,0.0,WeatherDisplay:10.37,2013-03-19 08:34:00,
2013-03-19 04:39:00,33.3,31.8,29.78,NW,322,0.0,0.0,94,0.00,,,0.00,0.0,WeatherDisplay:10.37,2013-03-19 08:39:00,
2013-03-19 04:44:00,33.3,31.8,29.77,NW,322,0.0,1.0,94,0.00,,,0.00,0.0,WeatherDisplay:10.37,2013-03-19 08:44:00,
2013-03-19 04:49:00,33.3,31.8,29.77,NW,322,0.0,0.0,94,0.00,,,0.00,0.0,WeatherDisplay:10.37,2013-03-19 08:49:00,
2013-03-19 04:54:00,33.3,31.8,29.77,NW,322,0.0,0.0,94,0.00,,,0.00,0.0,WeatherDisplay:10.37,2013-03-19 08:54:00,
2013-03-19 04:59:00,33.3,31.7,29.77,NW,322,0.0,1.0,94,0.00,,,0.00,0.0,WeatherDisplay:10.37,2013-03-19 08:59:00,
2013-03-19 05:04:00,33.2,31.7,29.77,NW,322,0.0,1.0,94,0.00,,,0.00,0.0,WeatherDisplay:10.37,2013-03-19 09:04:00,
2013-03-19 05:09:00,33.3,32.0,29.77,NW,322,0.0,0.0,95,0.00,,,0.00,0.0,WeatherDisplay:10.37,2013-03-19 09:09:00,
2013-03-19 05:14:00,33.3,32.0,29.78,NW,322,0.0,1.0,95,0.00,,,0.00,0.0,WeatherDisplay:10.37,2013-03-19 09:14:00,
2013-03-19 05:19:00,33.3,32.0,29.78,NW,322,0.0,2.0,95,0.00,,,0.00,0.0,WeatherDisplay:10.37,2013-03-19 09:19:00,
2013-03-19 05:24:00,33.3,32.0,29.78,NW,322,0.0,1.0,95,0.00,,,0.00,0.0,WeatherDisplay:10.37,2013-03-19 09:24:00,
2013-03-19 05:29:00,33.3,32.0,29.77,NW,322,0.0,1.0,95,0.00,,,0.00,0.0,WeatherDisplay:10.37,2013-03-19 09:29:00,
2013-03-19 05:34:00,33.2,31.9,29.77,NW,322,0.0,1.0,95,0.00,,,0.00,0.0,WeatherDisplay:10.37,2013-03-19 09:34:00,
2013-03-19 05:39:00,33.2,31.9,29.76,NW,322,0.0,0.0,95,0.00,,,0.00,0.0,WeatherDisplay:10.37,2013-03-19 09:39:00,
2013-03-19 05:44:00,33.2,31.9,29.77,NW,322,0.0,0.0,95,0.00,,,0.00,0.0,WeatherDisplay:10.37,2013-03-19 09:44:00,
2013-03-19 05:49:00,33.2,31.9,29.77,NW,322,0.0,1.0,95,0.00,,,0.00,0.0,WeatherDisplay:10.37,2013-03-19 09:49:00,
2013-03-19 05:54:00,33.2,31.9,29.77,NW,322,0.0,1.0,95,0.00,,,0.00,0.0,WeatherDisplay:10.37,2013-03-19 09:54:00,
2013-03-19 05:59:00,33.2,31.9,29.77,NW,322,0.0,1.0,95,0.00,,,0.00,0.0,WeatherDisplay:10.37,2013-03-19 09:59:00,
2013-03-19 06:04:00,33.1,31.8,29.77,NW,322,0.0,1.0,95,0.00,,,0.00,0.0,WeatherDisplay:10.37,2013-03-19 10:04:00,
2013-03-19 06:09:00,33.1,31.8,29.77,NW,322,0.0,0.0,95,0.00,,,0.00,0.0,WeatherDisplay:10.37,2013-03-19 10:09:00,
2013-03-19 06:14:00,33.1,31.8,29.76,NW,322,0.0,0.0,95,0.00,,,0.00,0.0,WeatherDisplay:10.37,2013-03-19 10:14:00,
2013-03-19 06:19:00,33.0,31.7,29.76,NW,322,0.0,0.0,95,0.00,,,0.00,0.0,WeatherDisplay:10.37,2013-03-19 10:19:00,
2013-03-19 06:24:00,33.0,31.7,29.76,NW,322,0.0,0.0,95,0.00,,,0.00,0.0,WeatherDisplay:10.37,2013-03-19 10:24:00,
2013-03-19 06:29:00,33.1,31.8,29.76,NW,322,0.0,0.0,95,0.00,,,0.00,0.0,WeatherDisplay:10.37,2013-03-19 10:29:00,
2013-03-19 06:34:00,33.1,31.8,29.77,NW,322,0.0,1.0,95,0.00,,,0.00,0.0,WeatherDisplay:10.37,2013-03-19 10:34:00,
2013-03-19 06:39:00,33.1,31.8,29.77,NW,322,1.0,1.0,95,0.00,,,0.00,0.0,WeatherDisplay:10.37,2013-03-19 10:39:00,
2013-03-19 06:44:00,33.2,31.9,29.78,NW,312,0.0,3.0,95,0.00,,,0.00,0.0,WeatherDisplay:10.37,2013-03-19 10:44:00,
2013-03-19 06:49:00,33.1,31.8,29.79,WNW,297,1.0,3.0,95,0.00,,,0.00,0.0,WeatherDisplay:10.37,2013-03-19 10:49:00,
2013-03-19 06:54:00,33.2,31.9,29.80,WNW,290,2.0,3.0,95,0.00,,,0.00,0.0,WeatherDisplay:10.37,2013-03-19 10:54:00,
2013-03-19 06:59:00,33.2,31.9,29.80,West,279,0.0,3.0,95,0.00,,,0.00,0.0,WeatherDisplay:10.37,2013-03-19 10:59:00,
2013-03-19 07:04:00,33.1,31.8,29.80,West,267,1.0,6.0,95,0.00,OVC,,0.00,0.0,WeatherDisplay:10.37,2013-03-19 11:04:00,
2013-03-19 07:09:00,33.1,31.8,29.81,West,265,2.0,5.0,95,0.00,OVC,,0.00,0.0,WeatherDisplay:10.37,2013-03-19 11:09:00,
2013-03-19 07:14:00,33.1,31.8,29.81,West,261,2.0,6.0,95,0.00,OVC,,0.00,0.0,WeatherDisplay:10.37,2013-03-19 11:14:00,
2013-03-19 07:19:00,33.1,31.8,29.81,WSW,254,1.0,3.0,95,0.00,OVC,,0.00,0.0,WeatherDisplay:10.37,2013-03-19 11:19:00,
2013-03-19 07:24:00,33.1,31.8,29.82,WSW,251,1.0,5.0,95,0.00,OVC,,0.00,0.0,WeatherDisplay:10.37,2013-03-19 11:24:00,
2013-03-19 07:29:00,33.1,32.1,29.82,WSW,252,1.0,3.0,96,0.00,OVC,,0.00,0.0,WeatherDisplay:10.37,2013-03-19 11:29:00,
2013-03-19 07:34:00,33.1,32.1,29.82,WSW,255,1.0,3.0,96,0.00,OVC,,0.00,0.0,WeatherDisplay:10.37,2013-03-19 11:34:00,
2013-03-19 07:39:00,33.0,32.0,29.82,WSW,254,1.0,3.0,96,0.00,OVC,,0.00,0.0,WeatherDisplay:10.37,2013-03-19 11:39:00,
2013-03-19 07:44:00,33.0,32.0,29.82,WSW,252,1.0,3.0,96,0.00,OVC,,0.00,0.0,WeatherDisplay:10.37,2013-03-19 11:44:00,
2013-03-19 07:49:00,33.0,31.7,29.82,WSW,250,0.0,3.0,95,0.00,OVC,,0.00,0.0,WeatherDisplay:10.37,2013-03-19 11:49:00,
2013-03-19 07:54:00,33.0,31.7,29.82,WSW,248,0.0,2.0,95,0.00,OVC,,0.00,5.0,WeatherDisplay:10.37,2013-03-19 11:54:00,
2013-03-19 07:59:00,33.0,32.0,29.81,West,267,0.0,2.0,96,0.00,OVC,,0.00,9.0,WeatherDisplay:10.37,2013-03-19 11:59:00,
2013-03-19 08:04:00,33.0,32.0,29.82,ENE,63,1.0,2.0,96,0.00,OVC,,0.00,14.0,WeatherDisplay:10.37,2013-03-19 12:04:00,
2013-03-19 08:09:00,33.0,32.0,29.82,ENE,67,0.0,2.0,96,0.00,OVC,,0.00,7.0,WeatherDisplay:10.37,2013-03-19 12:09:00,
2013-03-19 08:14:00,33.1,32.0,29.82,ENE,67,0.0,1.0,96,0.00,OVC,,0.00,9.0,WeatherDisplay:10.37,2013-03-19 12:14:00,
2013-03-19 08:19:00,33.1,32.1,29.82,ENE,67,0.0,1.0,96,0.00,OVC,,0.00,18.0,WeatherDisplay:10.37,2013-03-19 12:19:00,
2013-03-19 08:24:00,33.1,32.1,29.82,ENE,67,0.0,0.0,96,0.00,BKN,,0.00,44.0,WeatherDisplay:10.37,2013-03-19 12:24:00,
2013-03-19 08:29:00,33.2,32.2,29.81,ENE,67,0.0,0.0,96,0.00,BKN,,0.00,46.0,WeatherDisplay:10.37,2013-03-19 12:29:00,
2013-03-19 08:34:00,33.2,32.2,29.82,ENE,67,0.0,0.0,96,0.00,BKN,,0.00,53.0,WeatherDisplay:10.37,2013-03-19 12:34:00,
2013-03-19 08:39:00,33.3,32.3,29.82,ENE,67,0.0,1.0,96,0.00,BKN,,0.00,54.0,WeatherDisplay:10.37,2013-03-19 12:39:00,
2013-03-19 08:44:00,33.3,32.3,29.82,ENE,67,0.0,2.0,96,0.00,BKN,,0.00,67.0,WeatherDisplay:10.37,2013-03-19 12:44:00,
2013-03-19 08:49:00,33.4,32.4,29.82,ENE,67,1.0,2.0,96,0.00,BKN,,0.00,72.0,WeatherDisplay:10.37,2013-03-19 12:49:00,
2013-03-19 08:54:00,33.3,32.3,29.82,ENE,67,0.0,2.0,96,0.00,BKN,,0.00,69.0,WeatherDisplay:10.37,2013-03-19 12:54:00,
2013-03-19 08:59:00,33.4,32.4,29.82,ENE,67,0.0,1.0,96,0.00,BKN,,0.00,100.0,WeatherDisplay:10.37,2013-03-19 12:59:00,
2013-03-19 09:04:00,33.5,32.5,29.83,East,93,0.0,2.0,96,0.00,BKN,,0.00,76.0,WeatherDisplay:10.37,2013-03-19 13:04:00,
2013-03-19 09:09:00,33.6,32.6,29.83,ESE,114,0.0,1.0,96,0.00,BKN,,0.00,95.0,WeatherDisplay:10.37,2013-03-19 13:09:00,
2013-03-19 09:14:00,33.6,32.6,29.83,ESE,114,0.0,1.0,96,0.00,BKN,,0.00,121.0,WeatherDisplay:10.37,2013-03-19 13:14:00,
2013-03-19 09:19:00,33.7,32.7,29.83,ESE,114,0.0,1.0,96,0.00,BKN,,0.00,128.0,WeatherDisplay:10.37,2013-03-19 13:19:00,
2013-03-19 09:24:00,33.7,32.7,29.83,SE,125,0.0,2.0,96,0.00,BKN,,0.00,79.0,WeatherDisplay:10.37,2013-03-19 13:24:00,
2013-03-19 09:29:00,33.6,32.6,29.83,SE,143,1.0,2.0,96,0.00,BKN,,0.00,153.0,WeatherDisplay:10.37,2013-03-19 13:29:00,
2013-03-19 09:34:00,33.6,32.6,29.83,SSE,160,1.0,3.0,96,0.00,BKN,,0.00,158.0,WeatherDisplay:10.37,2013-03-19 13:34:00,
2013-03-19 09:39:00,33.7,32.7,29.83,South,172,0.0,2.0,96,0.00,BKN,,0.00,141.0,WeatherDisplay:10.37,2013-03-19 13:39:00,
2013-03-19 09:44:00,33.7,32.7,29.83,South,175,1.0,2.0,96,0.00,BKN,,0.00,135.0,WeatherDisplay:10.37,2013-03-19 13:44:00,
2013-03-19 09:49:00,34.0,33.0,29.83,South,175,0.0,1.0,96,0.00,BKN,,0.00,165.0,WeatherDisplay:10.37,2013-03-19 13:49:00,
2013-03-19 09:54:00,33.8,32.8,29.82,South,175,0.0,2.0,96,0.01,RA,,0.01,216.0,WeatherDisplay:10.37,2013-03-19 13:54:00,
2013-03-19 09:59:00,33.9,32.9,29.82,SSE,167,3.0,5.0,96,0.00,RA,,0.01,236.0,WeatherDisplay:10.37,2013-03-19 13:59:00,
2013-03-19 10:09:00,34.6,33.5,29.82,SSE,164,2.0,4.0,96,0.00,SCT,,0.01,388.0,WeatherDisplay:10.37,2013-03-19 14:09:00,
2013-03-19 10:14:00,35.0,34.0,29.82,SSE,167,0.0,3.0,96,0.00,FEW,,0.01,431.0,WeatherDisplay:10.37,2013-03-19 14:14:00,
2013-03-19 10:19:00,35.5,34.5,29.82,SSE,162,3.0,5.0,96,0.00,SCT,,0.01,221.0,WeatherDisplay:10.37,2013-03-19 14:19:00,
2013-03-19 10:24:00,35.7,34.7,29.81,SSE,159,0.0,5.0,96,0.01,RA,,0.02,517.0,WeatherDisplay:10.37,2013-03-19 14:24:00,
2013-03-19 10:29:00,36.0,35.0,29.82,SSE,159,1.0,3.0,96,0.00,RA,,0.02,533.0,WeatherDisplay:10.37,2013-03-19 14:29:00,
2013-03-19 10:34:00,36.9,35.8,29.81,SSE,162,1.0,2.0,96,0.00,FEW,,0.02,547.0,WeatherDisplay:10.37,2013-03-19 14:34:00,
2013-03-19 10:39:00,37.2,35.6,29.81,South,172,2.0,4.0,94,0.00,FEW,,0.02,564.0,WeatherDisplay:10.37,2013-03-19 14:39:00,
2013-03-19 10:44:00,37.5,35.6,29.81,South,188,1.0,3.0,93,0.01,RA,,0.03,592.0,WeatherDisplay:10.37,2013-03-19 14:44:00,
2013-03-19 10:49:00,37.8,35.7,29.81,SSW,200,0.0,3.0,92,0.00,RA,,0.03,599.0,WeatherDisplay:10.37,2013-03-19 14:49:00,
2013-03-19 10:54:00,38.6,36.5,29.80,SSW,212,2.0,3.0,92,0.01,RA,,0.04,612.0,WeatherDisplay:10.37,2013-03-19 14:54:00,
2013-03-19 10:59:00,39.0,36.9,29.80,SW,221,2.0,4.0,92,0.00,RA,,0.04,615.0,WeatherDisplay:10.37,2013-03-19 14:59:00,
2013-03-19 11:04:00,40.0,37.9,29.80,SW,227,1.0,2.0,92,0.01,RA,,0.05,635.0,WeatherDisplay:10.37,2013-03-19 15:04:00,
2013-03-19 11:09:00,41.1,38.4,29.80,WSW,238,1.0,3.0,90,0.00,RA,,0.05,647.0,WeatherDisplay:10.37,2013-03-19 15:09:00,
2013-03-19 11:14:00,41.8,37.9,29.79,West,270,5.0,9.0,86,0.01,RA,,0.06,666.0,WeatherDisplay:10.37,2013-03-19 15:14:00,
2013-03-19 11:19:00,42.4,37.9,29.79,West,263,5.0,8.0,84,0.01,RA,,0.07,670.0,WeatherDisplay:10.37,2013-03-19 15:19:00,
2013-03-19 11:24:00,42.6,37.5,29.79,West,261,1.0,6.0,82,0.01,RA,,0.08,677.0,WeatherDisplay:10.37,2013-03-19 15:24:00,
2013-03-19 11:29:00,43.0,37.6,29.79,West,281,1.0,5.0,81,0.00,RA,,0.08,719.0,WeatherDisplay:10.37,2013-03-19 15:29:00,
2013-03-19 11:34:00,43.7,38.6,29.79,WSW,241,2.0,7.0,82,0.01,RA,,0.09,740.0,WeatherDisplay:10.37,2013-03-19 15:34:00,
2013-03-19 11:39:00,44.0,38.2,29.79,SW,228,2.0,8.0,80,0.01,RA,,0.10,733.0,WeatherDisplay:10.37,2013-03-19 15:39:00,
2013-03-19 11:44:00,44.1,38.0,29.78,SW,222,3.0,6.0,79,0.01,RA,,0.11,729.0,WeatherDisplay:10.37,2013-03-19 15:44:00,
2013-03-19 11:49:00,44.0,36.6,29.77,SW,222,2.0,6.0,75,0.01,RA,,0.12,756.0,WeatherDisplay:10.37,2013-03-19 15:49:00,
2013-03-19 11:54:00,44.6,35.4,29.78,West,268,5.0,12.0,70,0.01,RA,,0.13,214.0,WeatherDisplay:10.37,2013-03-19 15:54:00,
2013-03-19 11:59:00,44.8,35.6,29.78,West,280,5.0,13.0,70,0.01,RA,,0.14,740.0,WeatherDisplay:10.37,2013-03-19 15:59:00,
2013-03-19 12:04:00,45.2,35.2,29.78,West,270,7.0,15.0,68,0.00,RA,,0.14,756.0,WeatherDisplay:10.37,2013-03-19 16:04:00,
2013-03-19 12:09:00,45.6,35.7,29.77,West,261,2.0,7.0,68,0.01,RA,,0.15,809.0,WeatherDisplay:10.37,2013-03-19 16:09:00,
2013-03-19 12:14:00,46.1,36.1,29.77,WSW,250,6.0,13.0,68,0.01,RA,,0.16,877.0,WeatherDisplay:10.37,2013-03-19 16:14:00,
2013-03-19 12:19:00,45.1,34.8,29.77,West,266,5.0,14.0,67,0.00,RA,,0.16,784.0,WeatherDisplay:10.37,2013-03-19 16:19:00,
2013-03-19 12:24:00,45.7,35.4,29.77,West,264,1.0,6.0,67,0.01,RA,,0.17,819.0,WeatherDisplay:10.37,2013-03-19 16:24:00,
2013-03-19 12:29:00,46.0,34.9,29.76,SW,220,3.0,10.0,65,0.01,RA,,0.18,185.0,WeatherDisplay:10.37,2013-03-19 16:29:00,
2013-03-19 12:34:00,45.6,35.7,29.76,WSW,256,3.0,12.0,68,0.00,RA,,0.18,796.0,WeatherDisplay:10.37,2013-03-19 16:34:00,
2013-03-19 12:39:00,46.6,36.6,29.77,West,275,8.0,12.0,68,0.01,RA,,0.19,786.0,WeatherDisplay:10.37,2013-03-19 16:39:00,
2013-03-19 12:44:00,47.3,36.5,29.77,West,275,8.0,14.0,66,0.00,RA,,0.19,786.0,WeatherDisplay:10.37,2013-03-19 16:44:00,
2013-03-19 12:49:00,47.4,35.9,29.77,West,270,12.0,17.0,64,0.01,RA,,0.20,791.0,WeatherDisplay:10.37,2013-03-19 16:49:00,
2013-03-19 12:54:00,47.7,36.9,29.77,West,271,6.0,12.0,66,0.00,RA,,0.20,786.0,WeatherDisplay:10.37,2013-03-19 16:54:00,
2013-03-19 13:00:00,47.6,36.4,29.76,West,271,7.0,12.0,65,0.00,SCT,,0.20,109.0,WeatherDisplay:10.37,2013-03-19 17:00:00,
2013-03-19 13:09:00,48.3,35.5,29.76,West,270,6.0,12.0,61,0.01,RA,,0.21,900.0,WeatherDisplay:10.37,2013-03-19 17:09:00,
2013-03-19 13:14:00,49.1,35.0,29.75,West,264,3.0,16.0,58,0.00,RA,,0.21,932.0,WeatherDisplay:10.37,2013-03-19 17:14:00,
2013-03-19 13:19:00,49.7,35.9,29.76,West,279,8.0,12.0,59,0.00,CLR,,0.21,856.0,WeatherDisplay:10.37,2013-03-19 17:19:00,
2013-03-19 13:24:00,49.7,36.0,29.75,WNW,283,7.0,9.0,59,0.00,CLR,,0.21,849.0,WeatherDisplay:10.37,2013-03-19 17:24:00,
2013-03-19 13:29:00,49.9,35.3,29.75,West,269,6.0,16.0,57,0.00,CLR,,0.21,821.0,WeatherDisplay:10.37,2013-03-19 17:29:00,
2013-03-19 13:34:00,50.6,34.1,29.74,West,261,9.0,13.0,53,0.00,CLR,,0.21,798.0,WeatherDisplay:10.37,2013-03-19 17:34:00,
2013-03-19 13:39:00,50.6,34.1,29.74,West,262,8.0,13.0,53,0.00,CLR,,0.21,795.0,WeatherDisplay:10.37,2013-03-19 17:39:00,
2013-03-19 13:44:00,50.9,32.4,29.74,West,260,9.0,18.0,49,0.00,CLR,,0.21,788.0,WeatherDisplay:10.37,2013-03-19 17:44:00,
2013-03-19 13:49:00,51.5,33.5,29.74,West,261,10.0,21.0,50,0.00,CLR,,0.21,830.0,WeatherDisplay:10.37,2013-03-19 17:49:00,
2013-03-19 13:54:00,51.3,31.7,29.74,West,266,10.0,21.0,47,0.00,CLR,,0.21,819.0,WeatherDisplay:10.37,2013-03-19 17:54:00,
2013-03-19 13:59:00,52.1,35.0,29.74,West,264,6.0,20.0,52,0.00,CLR,,0.21,889.0,WeatherDisplay:10.37,2013-03-19 17:59:00,
2013-03-19 14:04:00,52.7,33.0,29.75,West,265,8.0,18.0,47,0.00,CLR,,0.21,907.0,WeatherDisplay:10.37,2013-03-19 18:04:00,
2013-03-19 14:09:00,52.3,32.6,29.74,West,266,9.0,16.0,47,0.00,CLR,,0.21,891.0,WeatherDisplay:10.37,2013-03-19 18:09:00,
2013-03-19 14:14:00,52.7,31.4,29.74,West,263,14.0,22.0,44,0.00,CLR,,0.21,810.0,WeatherDisplay:10.37,2013-03-19 18:14:00,
2013-03-19 14:19:00,52.2,31.0,29.74,West,260,9.0,25.0,44,0.00,CLR,,0.21,912.0,WeatherDisplay:10.37,2013-03-19 18:19:00,
2013-03-19 14:24:00,51.7,31.5,29.73,West,262,6.0,20.0,46,0.00,CLR,,0.21,207.0,WeatherDisplay:10.37,2013-03-19 18:24:00,
2013-03-19 14:29:00,51.7,31.6,29.73,West,262,9.0,21.0,46,0.00,CLR,,0.21,849.0,WeatherDisplay:10.37,2013-03-19 18:29:00,
2013-03-19 14:34:00,52.8,31.5,29.73,West,271,9.0,20.0,44,0.00,CLR,,0.21,824.0,WeatherDisplay:10.37,2013-03-19 18:34:00,
2013-03-19 14:39:00,52.6,33.5,29.73,West,272,6.0,15.0,48,0.00,CLR,,0.21,301.0,WeatherDisplay:10.37,2013-03-19 18:39:00,
2013-03-19 14:44:00,52.9,30.4,29.73,WSW,256,10.0,21.0,42,0.00,CLR,,0.21,812.0,WeatherDisplay:10.37,2013-03-19 18:44:00,
2013-03-19 14:49:00,54.5,32.4,29.73,West,264,9.0,15.0,43,0.00,CLR,,0.21,793.0,WeatherDisplay:10.37,2013-03-19 18:49:00,
2013-03-19 14:54:00,54.8,32.7,29.73,West,272,8.0,14.0,43,0.00,CLR,,0.21,842.0,WeatherDisplay:10.37,2013-03-19 18:54:00,
2013-03-19 14:59:00,53.8,30.0,29.73,West,269,14.0,26.0,40,0.00,CLR,,0.21,809.0,WeatherDisplay:10.37,2013-03-19 18:59:00,
2013-03-19 15:04:00,52.6,28.3,29.73,West,262,13.0,24.0,39,0.00,CLR,,0.21,246.0,WeatherDisplay:10.37,2013-03-19 19:04:00,
2013-03-19 15:09:00,52.7,29.6,29.73,WSW,254,12.0,22.0,41,0.00,CLR,,0.21,812.0,WeatherDisplay:10.37,2013-03-19 19:09:00,
2013-03-19 15:14:00,52.6,29.5,29.73,West,262,12.0,20.0,41,0.00,CLR,,0.21,817.0,WeatherDisplay:10.37,2013-03-19 19:14:00,
2013-03-19 15:19:00,53.1,31.2,29.73,West,272,9.0,17.0,43,0.00,FEW,,0.21,788.0,WeatherDisplay:10.37,2013-03-19 19:19:00,
2013-03-19 15:24:00,52.8,30.3,29.72,WNW,283,10.0,17.0,42,0.00,FEW,,0.21,824.0,WeatherDisplay:10.37,2013-03-19 19:24:00,
2013-03-19 15:29:00,53.6,33.3,29.72,West,281,7.0,24.0,46,0.00,FEW,,0.21,786.0,WeatherDisplay:10.37,2013-03-19 19:29:00,
2013-03-19 15:34:00,53.9,31.9,29.72,West,273,9.0,15.0,43,0.00,FEW,,0.21,768.0,WeatherDisplay:10.37,2013-03-19 19:34:00,
2013-03-19 15:39:00,53.9,30.7,29.72,West,271,9.0,20.0,41,0.00,FEW,,0.21,670.0,WeatherDisplay:10.37,2013-03-19 19:39:00,
2013-03-19 15:44:00,53.9,31.9,29.72,West,268,8.0,20.0,43,0.00,FEW,,0.21,645.0,WeatherDisplay:10.37,2013-03-19 19:44:00,
2013-03-19 15:49:00,53.9,28.2,29.72,West,268,8.0,23.0,37,0.00,FEW,,0.21,598.0,WeatherDisplay:10.37,2013-03-19 19:49:00,
2013-03-19 15:54:00,53.2,26.9,29.72,West,272,8.0,27.0,36,0.00,FEW,,0.21,603.0,WeatherDisplay:10.37,2013-03-19 19:54:00,
2013-03-19 15:59:00,53.8,28.7,29.73,West,269,12.0,20.0,38,0.00,FEW,,0.21,633.0,WeatherDisplay:10.37,2013-03-19 19:59:00,
2013-03-19 16:04:00,53.6,27.9,29.72,West,263,12.0,28.0,37,0.00,FEW,,0.21,564.0,WeatherDisplay:10.37,2013-03-19 20:04:00,
2013-03-19 16:09:00,53.3,27.7,29.72,West,259,7.0,26.0,37,0.00,FEW,,0.21,148.0,WeatherDisplay:10.37,2013-03-19 20:09:00,
2013-03-19 16:14:00,52.3,27.4,29.72,WSW,256,6.0,23.0,38,0.00,FEW,,0.21,171.0,WeatherDisplay:10.37,2013-03-19 20:14:00,
2013-03-19 16:19:00,53.3,29.6,29.72,West,259,6.0,16.0,40,0.00,FEW,,0.21,635.0,WeatherDisplay:10.37,2013-03-19 20:19:00,
2013-03-19 16:24:00,53.2,28.9,29.73,West,267,9.0,14.0,39,0.00,FEW,,0.21,605.0,WeatherDisplay:10.37,2013-03-19 20:24:00,
2013-03-19 16:29:00,52.9,26.6,29.73,West,265,9.0,21.0,36,0.00,FEW,,0.21,601.0,WeatherDisplay:10.37,2013-03-19 20:29:00,
2013-03-19 16:34:00,53.2,27.6,29.73,West,260,9.0,22.0,37,0.00,FEW,,0.21,580.0,WeatherDisplay:10.37,2013-03-19 20:34:00,
2013-03-19 16:39:00,53.4,26.4,29.73,West,263,10.0,25.0,35,0.00,FEW,,0.21,577.0,WeatherDisplay:10.37,2013-03-19 20:39:00,
2013-03-19 16:44:00,52.8,25.2,29.73,West,263,9.0,26.0,34,0.00,FEW,,0.21,260.0,WeatherDisplay:10.37,2013-03-19 20:44:00,
2013-03-19 16:49:00,51.8,24.3,29.73,WSW,257,13.0,23.0,34,0.00,FEW,,0.21,230.0,WeatherDisplay:10.37,2013-03-19 20:49:00,
2013-03-19 16:54:00,51.8,25.0,29.74,West,266,12.0,26.0,35,0.00,FEW,,0.21,262.0,WeatherDisplay:10.37,2013-03-19 20:54:00,
2013-03-19 16:59:00,51.3,25.2,29.74,West,273,8.0,18.0,36,0.00,FEW,,0.21,403.0,WeatherDisplay:10.37,2013-03-19 20:59:00,
2013-03-19 17:04:00,52.0,26.5,29.74,West,280,9.0,20.0,37,0.00,FEW,,0.21,473.0,WeatherDisplay:10.37,2013-03-19 21:04:00,
2013-03-19 17:10:00,51.7,25.6,29.74,West,281,6.0,20.0,36,0.00,FEW,,0.21,308.0,WeatherDisplay:10.37,2013-03-19 21:10:00,
2013-03-19 17:19:00,51.3,23.8,29.74,West,275,12.0,20.0,34,0.00,BKN,,0.21,111.0,WeatherDisplay:10.37,2013-03-19 21:19:00,
2013-03-19 17:24:00,50.2,22.9,29.74,West,276,9.0,20.0,34,0.00,BKN,,0.21,111.0,WeatherDisplay:10.37,2013-03-19 21:24:00,
2013-03-19 17:29:00,49.8,23.9,29.74,West,271,9.0,17.0,36,0.00,BKN,,0.21,135.0,WeatherDisplay:10.37,2013-03-19 21:29:00,
2013-03-19 17:34:00,49.7,23.8,29.75,West,277,10.0,15.0,36,0.00,BKN,,0.21,102.0,WeatherDisplay:10.37,2013-03-19 21:34:00,
2013-03-19 17:39:00,49.5,24.3,29.75,West,280,8.0,15.0,37,0.00,BKN,,0.21,169.0,WeatherDisplay:10.37,2013-03-19 21:39:00,
2013-03-19 17:45:00,49.6,23.7,29.75,West,279,7.0,15.0,36,0.00,BKN,,0.21,111.0,WeatherDisplay:10.37,2013-03-19 21:45:00,
2013-03-19 17:55:00,49.4,22.9,29.75,West,279,8.0,21.0,35,0.00,BKN,,0.21,137.0,WeatherDisplay:10.37,2013-03-19 21:55:00,
2013-03-19 18:04:00,49.5,20.8,29.75,West,272,7.0,13.0,32,0.00,BKN,,0.21,149.0,WeatherDisplay:10.37,2013-03-19 22:04:00,
2013-03-19 18:09:00,49.4,20.0,29.75,West,280,9.0,17.0,31,0.00,BKN,,0.21,69.0,WeatherDisplay:10.37,2013-03-19 22:09:00,
2013-03-19 18:19:00,48.6,20.0,29.76,West,275,9.0,20.0,32,0.00,BKN,,0.21,86.0,WeatherDisplay:10.37,2013-03-19 22:19:00,
2013-03-19 18:24:00,48.5,18.4,29.76,West,279,8.0,16.0,30,0.00,BKN,,0.21,86.0,WeatherDisplay:10.37,2013-03-19 22:24:00,
2013-03-19 18:29:00,48.4,16.7,29.76,West,279,9.0,27.0,28,0.00,BKN,,0.21,56.0,WeatherDisplay:10.37,2013-03-19 22:29:00,
2013-03-19 18:34:00,48.2,16.6,29.77,West,277,10.0,20.0,28,0.00,BKN,,0.21,53.0,WeatherDisplay:10.37,2013-03-19 22:34:00,
2013-03-19 18:39:00,48.0,16.4,29.77,West,269,13.0,21.0,28,0.00,BKN,,0.21,60.0,WeatherDisplay:10.37,2013-03-19 22:39:00,
2013-03-19 18:44:00,47.9,17.1,29.77,West,271,12.0,18.0,29,0.00,BKN,,0.21,54.0,WeatherDisplay:10.37,2013-03-19 22:44:00,
2013-03-19 18:49:00,47.7,16.9,29.77,West,274,7.0,17.0,29,0.00,BKN,,0.21,30.0,WeatherDisplay:10.37,2013-03-19 22:49:00,
2013-03-19 18:54:00,47.4,17.5,29.78,West,270,10.0,18.0,30,0.00,BKN,,0.21,23.0,WeatherDisplay:10.37,2013-03-19 22:54:00,
2013-03-19 18:59:00,46.9,17.8,29.79,West,278,12.0,22.0,31,0.00,BKN,,0.21,21.0,WeatherDisplay:10.37,2013-03-19 22:59:00,
2013-03-19 19:04:00,46.3,18.8,29.79,WNW,288,10.0,14.0,33,0.00,BKN,,0.21,16.0,WeatherDisplay:10.37,2013-03-19 23:04:00,
2013-03-19 19:09:00,45.7,18.2,29.79,WNW,287,8.0,18.0,33,0.00,BKN,,0.21,11.0,WeatherDisplay:10.37,2013-03-19 23:09:00,
2013-03-19 19:14:00,45.1,19.7,29.80,WNW,284,8.0,14.0,36,0.00,BKN,,0.21,7.0,WeatherDisplay:10.37,2013-03-19 23:14:00,
2013-03-19 19:19:00,44.6,20.5,29.81,WNW,289,12.0,18.0,38,0.00,OVC,,0.21,5.0,WeatherDisplay:10.37,2013-03-19 23:19:00,
2013-03-19 19:24:00,44.0,21.2,29.81,WNW,287,7.0,17.0,40,0.00,OVC,,0.21,0.0,WeatherDisplay:10.37,2013-03-19 23:24:00,
2013-03-19 19:29:00,43.3,21.2,29.81,WNW,287,5.0,12.0,41,0.00,OVC,,0.21,0.0,WeatherDisplay:10.37,2013-03-19 23:29:00,
2013-03-19 19:34:00,42.9,21.3,29.82,WNW,290,6.0,17.0,42,0.00,OVC,,0.21,0.0,WeatherDisplay:10.37,2013-03-19 23:34:00,
2013-03-19 19:39:00,42.3,22.0,29.82,WNW,289,7.0,12.0,44,0.00,OVC,,0.21,0.0,WeatherDisplay:10.37,2013-03-19 23:39:00,
2013-03-19 19:44:00,41.8,22.0,29.82,WNW,286,5.0,12.0,45,0.00,OVC,,0.21,0.0,WeatherDisplay:10.37,2013-03-19 23:44:00,
2013-03-19 19:49:00,41.6,21.8,29.82,WNW,287,9.0,16.0,45,0.00,OVC,,0.21,0.0,WeatherDisplay:10.37,2013-03-19 23:49:00,
2013-03-19 19:59:00,41.2,22.0,29.82,WNW,296,7.0,13.0,46,0.00,OVC,,0.21,0.0,WeatherDisplay:10.37,2013-03-19 23:59:00,
2013-03-19 20:04:00,41.0,22.2,29.82,WNW,293,5.0,12.0,47,0.00,CLR,,0.21,0.0,WeatherDisplay:10.37,2013-03-20 00:04:00,
2013-03-19 20:09:00,40.6,22.4,29.83,WNW,292,5.0,9.0,48,0.00,CLR,,0.21,0.0,WeatherDisplay:10.37,2013-03-20 00:09:00,
2013-03-19 20:15:00,40.3,22.2,29.83,WNW,289,6.0,12.0,48,0.00,CLR,,0.21,0.0,WeatherDisplay:10.37,2013-03-20 00:15:00,
2013-03-19 20:24:00,39.9,22.3,29.83,WNW,286,3.0,8.0,49,0.00,CLR,,0.21,0.0,WeatherDisplay:10.37,2013-03-20 00:24:00,
2013-03-19 20:29:00,39.7,22.1,29.83,WNW,284,6.0,12.0,49,0.00,CLR,,0.21,0.0,WeatherDisplay:10.37,2013-03-20 00:29:00,
2013-03-19 20:34:00,39.5,21.9,29.84,WNW,287,7.0,7.0,49,0.00,CLR,,0.21,0.0,WeatherDisplay:10.37,2013-03-20 00:34:00,
2013-03-19 20:39:00,39.3,22.2,29.84,WNW,296,5.0,17.0,50,0.00,CLR,,0.21,0.0,WeatherDisplay:10.37,2013-03-20 00:39:00,
2013-03-19 20:44:00,39.2,22.6,29.85,WNW,294,10.0,14.0,51,0.00,CLR,,0.21,0.0,WeatherDisplay:10.37,2013-03-20 00:44:00,
2013-03-19 20:49:00,39.1,22.5,29.85,WNW,288,10.0,23.0,51,0.00,CLR,,0.21,0.0,WeatherDisplay:10.37,2013-03-20 00:49:00,
2013-03-19 20:54:00,38.8,23.1,29.85,WNW,293,8.0,25.0,53,0.00,CLR,,0.21,0.0,WeatherDisplay:10.37,2013-03-20 00:54:00,
2013-03-19 20:59:00,38.6,23.3,29.85,WNW,292,7.0,15.0,54,0.00,CLR,,0.21,0.0,WeatherDisplay:10.37,2013-03-20 00:59:00,
2013-03-19 21:04:00,38.2,23.9,29.85,WNW,285,8.0,17.0,56,0.00,CLR,,0.21,0.0,WeatherDisplay:10.37,2013-03-20 01:04:00,
2013-03-19 21:09:00,37.9,24.0,29.85,WNW,288,9.0,15.0,57,0.00,CLR,,0.21,0.0,WeatherDisplay:10.37,2013-03-20 01:09:00,
2013-03-19 21:14:00,37.7,23.8,29.85,WNW,287,9.0,14.0,57,0.00,CLR,,0.21,0.0,WeatherDisplay:10.37,2013-03-20 01:14:00,
2013-03-19 21:19:00,37.5,24.1,29.86,WNW,287,10.0,20.0,58,0.00,BKN,,0.21,0.0,WeatherDisplay:10.37,2013-03-20 01:19:00,
2013-03-19 21:24:00,37.3,23.9,29.86,WNW,287,7.0,20.0,58,0.00,BKN,,0.21,0.0,WeatherDisplay:10.37,2013-03-20 01:24:00,
2013-03-19 21:29:00,37.1,24.1,29.86,WNW,288,9.0,14.0,59,0.00,BKN,,0.21,0.0,WeatherDisplay:10.37,2013-03-20 01:29:00,
2013-03-19 21:34:00,37.0,24.0,29.86,WNW,287,7.0,15.0,59,0.00,BKN,,0.21,0.0,WeatherDisplay:10.37,2013-03-20 01:34:00,
2013-03-19 21:39:00,36.9,23.9,29.86,WNW,288,8.0,16.0,59,0.00,BKN,,0.21,0.0,WeatherDisplay:10.37,2013-03-20 01:39:00,
2013-03-19 21:44:00,36.8,24.2,29.86,WNW,288,8.0,16.0,60,0.00,BKN,,0.21,0.0,WeatherDisplay:10.37,2013-03-20 01:44:00,
2013-03-19 21:49:00,36.7,24.1,29.86,WNW,288,9.0,17.0,60,0.00,BKN,,0.21,0.0,WeatherDisplay:10.37,2013-03-20 01:49:00,
2013-03-19 21:54:00,36.5,23.9,29.87,WNW,288,8.0,14.0,60,0.00,BKN,,0.21,0.0,WeatherDisplay:10.37,2013-03-20 01:54:00,
2013-03-19 21:59:00,36.4,24.2,29.87,WNW,285,8.0,15.0,61,0.00,BKN,,0.21,0.0,WeatherDisplay:10.37,2013-03-20 01:59:00,
2013-03-19 22:04:00,36.3,24.1,29.87,WNW,283,10.0,15.0,61,0.00,BKN,,0.21,0.0,WeatherDisplay:10.37,2013-03-20 02:04:00,
2013-03-19 22:09:00,36.4,24.2,29.87,WNW,286,8.0,17.0,61,0.00,BKN,,0.21,0.0,WeatherDisplay:10.37,2013-03-20 02:09:00,
2013-03-19 22:14:00,36.4,24.2,29.87,WNW,287,8.0,16.0,61,0.00,BKN,,0.21,0.0,WeatherDisplay:10.37,2013-03-20 02:14:00,
2013-03-19 22:19:00,36.3,24.5,29.87,WNW,285,8.0,16.0,62,0.00,CLR,,0.21,0.0,WeatherDisplay:10.37,2013-03-20 02:19:00,
2013-03-19 22:24:00,36.2,24.4,29.87,WNW,290,10.0,17.0,62,0.00,CLR,,0.21,0.0,WeatherDisplay:10.37,2013-03-20 02:24:00,
2013-03-19 22:29:00,36.2,24.0,29.88,WNW,291,9.0,15.0,61,0.00,CLR,,0.21,0.0,WeatherDisplay:10.37,2013-03-20 02:29:00,
2013-03-19 22:34:00,36.2,24.4,29.88,WNW,288,9.0,16.0,62,0.00,CLR,,0.21,0.0,WeatherDisplay:10.37,2013-03-20 02:34:00,
2013-03-19 22:39:00,36.2,24.4,29.88,WNW,288,12.0,20.0,62,0.00,CLR,,0.21,0.0,WeatherDisplay:10.37,2013-03-20 02:39:00,
2013-03-19 22:44:00,36.2,24.4,29.89,WNW,291,7.0,17.0,62,0.00,CLR,,0.21,0.0,WeatherDisplay:10.37,2013-03-20 02:44:00,
2013-03-19 22:49:00,36.0,24.2,29.89,WNW,289,6.0,13.0,62,0.00,CLR,,0.21,0.0,WeatherDisplay:10.37,2013-03-20 02:49:00,
2013-03-19 22:54:00,35.9,24.5,29.89,WNW,286,8.0,17.0,63,0.00,CLR,,0.21,0.0,WeatherDisplay:10.37,2013-03-20 02:54:00,
2013-03-19 22:59:00,35.9,24.5,29.89,West,279,7.0,13.0,63,0.00,CLR,,0.21,0.0,WeatherDisplay:10.37,2013-03-20 02:59:00,
2013-03-19 23:04:00,35.9,24.2,29.89,West,278,7.0,12.0,62,0.00,SCT,,0.21,0.0,WeatherDisplay:10.37,2013-03-20 03:04:00,
2013-03-19 23:09:00,36.2,24.0,29.89,West,275,10.0,18.0,61,0.00,SCT,,0.21,0.0,WeatherDisplay:10.37,2013-03-20 03:09:00,
2013-03-19 23:14:00,36.4,23.8,29.90,West,278,8.0,14.0,60,0.00,SCT,,0.21,0.0,WeatherDisplay:10.37,2013-03-20 03:14:00,
2013-03-19 23:19:00,36.2,24.1,29.90,West,281,6.0,21.0,61,0.00,SCT,,0.21,0.0,WeatherDisplay:10.37,2013-03-20 03:19:00,
2013-03-19 23:24:00,36.1,24.3,29.91,WNW,285,8.0,21.0,62,0.00,SCT,,0.21,0.0,WeatherDisplay:10.37,2013-03-20 03:24:00,
2013-03-19 23:29:00,35.8,24.5,29.91,WNW,290,10.0,17.0,63,0.00,SCT,,0.21,0.0,WeatherDisplay:10.37,2013-03-20 03:29:00,
2013-03-19 23:34:00,35.8,25.1,29.91,WNW,290,8.0,18.0,65,0.00,SCT,,0.21,0.0,WeatherDisplay:10.37,2013-03-20 03:34:00,
2013-03-19 23:39:00,35.7,25.1,29.91,WNW,288,7.0,16.0,65,0.00,SCT,,0.21,0.0,WeatherDisplay:10.37,2013-03-20 03:39:00,
2013-03-19 23:44:00,35.9,24.5,29.91,West,279,12.0,21.0,63,0.00,SCT,,0.21,0.0,WeatherDisplay:10.37,2013-03-20 03:44:00,
2013-03-19 23:49:00,36.2,24.1,29.91,West,278,10.0,24.0,61,0.00,SCT,,0.21,0.0,WeatherDisplay:10.37,2013-03-20 03:49:00,
2013-03-19 23:54:00,36.3,23.3,29.91,West,275,8.0,18.0,59,0.00,SCT,,0.21,0.0,WeatherDisplay:10.37,2013-03-20 03:54:00,
2013-03-19 23:59:00,36.4,22.2,29.91,West,267,13.0,22.0,56,0.00,RA,,0.00,0.0,WeatherDisplay:10.37,2013-03-20 03:59:00,